Location: Congrier
(47.8099°N, 1.1170°W)
Time: 14:22:51
(UTC+00:00)

CSL-04 Rocket - Pass Details

Date: 28 January 2023
Orbit: 806 x 859 km, 98.8° (Epoch: 25 March)

Event Time Altitude Azimuth Distance (km) Brightness Sun altitude
Exits shadow 18:50:15 31° 59° (ENE) 1,410 4.4 -18.8°
Drops below altitude 10° 18:54:42 10° 3° (N) 2,433 6.0 -19.5°
Sets 18:57:18 0° 353° (N) 3,379 6.9 -19.9°
